Location: Newark
(48.4472°N, 1.4892°E)
Time: 11:40:58
(UTC+00:00)

Vanguard 3 - Visible Passes

Search period start: 21 November 2019 00:00
Search period end: 01 December 2019 00:00
Orbit: 507 x 3263 km, 33.4° (Epoch: 20 November)

Date Brightness Start Highest point End Pass type
(mag) Time Alt. Az. Time Alt. Az. Time Alt. Az.
21 Nov 10.7 16:32:43 10° WSW 16:50:11 44° SSW 17:02:43 10° SE visible
21 Nov 10.6 18:50:24 10° W 19:02:28 25° SW 19:11:14 10° S visible
22 Nov 10.7 17:32:20 10° W 17:48:01 35° SSW 17:59:15 10° SSE visible
22 Nov 11.0 19:53:16 10° WSW 19:59:01 13° SW 20:03:55 10° SSW visible
23 Nov 10.8 16:15:05 10° W 16:32:48 43° SSW 16:46:12 10° SE visible
23 Nov 10.8 18:32:53 10° W 18:45:13 24° SW 18:54:30 10° S visible
24 Nov 10.9 17:14:44 10° W 17:30:39 34° SSW 17:42:36 10° SSE visible
24 Nov 11.2 19:36:36 10° WSW 19:41:45 12° SW 19:46:19 10° SSW visible
25 Nov 11.0 18:15:28 10° W 18:27:50 23° SW 18:37:34 10° S visible
26 Nov 11.1 16:57:15 10° W 17:13:09 33° SSW 17:25:45 10° SSE visible
26 Nov 11.4 19:20:29 10° WSW 19:24:23 11° SW 19:27:59 10° SW visible
27 Nov 11.2 17:58:13 10° W 18:10:21 21° SW 18:20:21 10° S visible
28 Nov 11.2 16:39:55 10° W 16:55:35 31° SW 17:08:42 10° SSE visible
29 Nov 11.5 17:41:10 10° W 17:52:48 20° SW 18:02:51 10° S visible
30 Nov 11.4 16:22:44 10° W 16:37:57 29° SW 16:51:25 10° SSE visible
